Location: Diati
(11.8376°N, 2.5966°E)
Time: 18:20:54
(UTC+00:00)

Okean 2 Rocket - Pass Details

Date: 21 September 2020
Orbit: 616 x 642 km, 82.5° (Epoch: 19 October)

Event Time Altitude Azimuth Distance (km) Brightness Sun altitude
Rises 18:54:14 0° 193° (SSW) 2,938 6.6 -17.5°
Reaches altitude 10° 18:56:32 10° 198° (SSW) 2,029 5.9 -18.1°
Maximum altitude 19:00:55 53° 275° (W) 784 3.9 -19.1°
Drops below altitude 10° 19:05:18 10° 352° (N) 2,021 5.8 -20.2°
Sets 19:07:35 0° 357° (N) 2,926 6.6 -20.8°
